Presure
111 82 148 169 147 201 182 124 145 145 156 107 130 121 164 177 109 101 87 99 94 92 95 97 96 97 92 95 102 104 103 117 207
124 175 164 120 190 140 138 136 147 151 148 121 125 122 116 166 84 102 84 89 87 94 94 94 95 96 97 95 90 89 98 107 214
107 155 169 143 170 143 209 139 188 153 155 110 130 120 130 124 88 102 96 88 92 97 100 101 98 97 93 96 96 95 89 87 90
126 122 162 187 193 139 148 122 182 154 149 110 127 122 131 130 98 92 98 85 96 94 98 87 90 90 90 97 91 90 96 97 98
156 157 178 199 143 174 122 205 182 154 151 126 123 121 118 171 93 93 101 88 94 92 84 95 98 97 96 96 88 88 93 87 97
175 148 172 140 195 136 134 179 125 163 152 115 120 123 119 126 95 99 98 89 91 86 88 87 84 87 94 92 96 89 89 89 91
155 173 136 179 211 133 166 142 181 189 159 99 128 125 122 123 141 101 93 90 89 92 89 89 85 89 90 90 91 84 95 88 86
134 144 135 134 126 142 131 193 187 153 150 110 146 124 126 119 107 100 93 88 95 95 89 91 91 86 90 91 89 91 90 86 91
174 111 217 191 127 131 207 196 180 152 182 118 132 121 127 120 105 91 96 91 90 94 96 89 90 89 91 86 87 85 87 90 96
112 124 125 214 199 127 187 135 185 179 149 165 123 137 127 123 120 95 101 90 92 89 86 89 88 105 89 81 81 83 88 80 90
113 174 217 180 140 138 173 179 192 184 154 146 97 128 126 124 124 104 100 101 93 83 91 93 90 95 89 91 93 93 91 87 89
111 159 199 136 200 162 158 204 133 182 183 163 106 124 128 128 117 121 95 105 99 85 97 97 95 100 98 91 86 83 98 83 84
112 139 200 199 133 206 202 147 135 192 183 185 128 101 124 128 122 119 118 97 104 98 97 92 91 94 85 97 86 95 107 86 98
138 184 113 150 135 178 196 133 141 134 171 185 189 129 143 127 121 122 121 100 102 105 104 100 98 94 87 86 97 102 97 95 146
155 113 198 154 192 136 139 176 133 134 172 157 193 181 138 135 127 117 151 119 108 102 95 98 99 91 94 89 86 96 94 155 98
112 142 117 177 191 123 130 187 203 176 191 175 174 185 181 105 135 124 119 126 117 100 91 95 95 94 94 169 102 97 90 129 140
112 125 110 179 192 124 124 134 143 209 157 140 181 155 141 109 133 134 124 110 147 153 119 109 107 101 99 138 103 100 146 100 110
108 115 119 127 155 195 130 133 172 185 173 186 179 175 134 123 136 169 141 137 123 123 133 139 137 152 112 126 144 103 110 116 131
113 117 129 138 125 194 125 191 142 191 206 133 164 161 177 131 129 107 118 152 130 139 145 124 141 127 164 122 110 123 115 135 134
135 185 130 135 126 196 169 184 132 195 182 197 143 149 133 182 125 122 107 140 141 148 164 145 137 148 125 141 147 126 135 146 114
Wind_Speed
25 19 23 24 21 53 23 16 16 13 11 13 12 11 12 15 12 18 15 22 20 17 24 24 22 25 24 32 35 38 39 40 41
26 33 29 24 44 19 18 19 17 17 12 15 14 12 14 10 15 19 12 13 12 16 20 20 21 22 28 28 25 25 35 42 42
30 30 30 25 27 20 26 21 25 20 16 14 14 14 11 14 15 19 15 11 11 14 18 19 19 19 23 28 29 29 22 23 27
34 30 37 43 56 25 19 21 29 22 19 16 17 17 14 15 18 16 15 11 12 12 15 16 18 18 19 23 24 26 32 34 33
43 38 38 62 29 31 22 25 30 25 23 22 20 19 19 18 18 17 16 11 10 11 13 13 15 17 19 20 20 22 28 24 33
46 41 42 34 45 30 28 26 25 29 25 22 23 22 22 20 19 20 18 13 8 10 9 12 14 15 17 19 22 20 22 25 28
44 49 34 42 45 31 29 29 36 33 30 22 26 24 24 22 15 23 16 13 10 7 7 7 12 12 14 16 19 17 22 22 23
43 43 40 38 34 35 32 28 35 34 33 27 24 27 25 26 22 23 17 13 12 8 6 5 6 10 11 14 16 18 19 18 23
50 41 46 41 39 37 34 32 37 35 36 32 30 29 27 28 30 18 19 14 10 9 7 4 4 7 9 11 13 14 16 19 21
46 46 44 42 38 40 35 38 36 41 35 35 34 29 30 30 31 22 24 13 13 10 8 3 3 8 5 8 9 12 14 14 18
49 48 48 46 46 45 37 43 37 41 39 38 27 34 32 32 32 31 24 23 15 11 9 6 1 4 2 4 8 11 14 14 15
51 49 41 43 43 46 41 37 42 44 43 42 33 37 35 34 34 33 21 29 20 11 15 12 8 9 10 5 3 6 14 9 11
54 52 43 44 51 47 42 48 44 41 44 43 42 30 37 37 36 35 33 22 26 18 16 10 7 9 5 10 4 10 18 11 21
60 54 52 53 55 51 46 49 48 43 44 45 42 36 36 39 37 37 37 26 26 24 22 19 16 11 8 6 17 20 11 14 27
59 59 51 55 49 52 51 48 49 45 46 46 44 43 38 38 40 38 31 40 32 25 16 18 19 10 12 11 5 18 12 27 19
60 63 58 56 54 52 51 49 46 51 48 50 47 45 44 35 40 42 40 40 40 28 16 17 18 16 16 23 21 25 9 25 30
63 65 58 61 58 56 54 54 55 49 51 49 50 46 46 39 38 42 42 33 35 33 30 33 31 24 21 24 24 20 33 26 34
63 62 62 61 60 58 58 57 56 56 57 53 53 51 49 48 42 45 40 39 38 42 37 34 34 33 34 34 28 28 30 29 33
65 63 66 67 61 59 56 60 58 58 56 52 56 53 53 50 50 36 37 43 41 38 38 40 35 37 37 36 32 33 35 35 37
78 65 68 66 64 59 56 63 58 61 60 56 55 55 53 52 52 42 36 41 41 41 44 38 39 38 37 35 36 33 32 35 38
Wind_Direction
237 197 240 264 244 324 283 241 228 224 238 151 187 183 280 303 141 137 103 114 103 93 89 85 76 74 70 67 56 52 53 36 19
233 284 239 238 308 228 246 228 232 237 213 182 187 193 163 279 122 151 110 108 96 95 92 87 80 72 71 71 66 57 52 45 15
237 256 248 238 244 232 289 239 243 239 231 182 202 191 196 184 141 158 141 113 104 99 98 90 84 75 69 69 63 58 53 47 48
229 235 265 295 302 225 252 227 241 238 227 198 196 199 208 196 160 151 152 119 122 101 97 84 81 74 64 68 63 59 49 44 42
236 239 258 292 230 251 225 256 241 237 233 205 196 197 198 271 163 162 168 138 131 112 100 83 74 66 61 59 64 57 52 52 38
265 237 252 230 281 222 219 241 223 238 234 207 201 204 203 205 177 179 173 148 143 124 101 89 85 70 57 55 44 59 55 49 40
252 255 248 258 281 223 239 230 233 238 238 203 209 207 207 209 229 189 176 160 156 157 112 88 83 64 54 50 50 56 35 47 41
226 230 233 225 227 227 223 238 233 238 224 212 226 207 211 209 198 196 181 168 177 172 129 115 83 81 53 38 43 33 35 46 36
260 225 251 254 227 224 245 234 231 235 236 215 221 213 210 211 203 188 193 179 172 184 185 138 86 66 47 57 44 53 35 23 17
220 222 226 247 251 225 232 225 229 235 232 234 220 223 210 214 216 199 209 183 190 180 154 172 96 279 45 92 69 49 15 44 17
220 235 238 237 226 226 227 233 227 232 236 225 210 221 216 214 221 210 212 216 204 180 198 230 208 271 23 0 334 336 346 12 5
220 228 232 225 240 231 227 230 225 229 234 237 220 223 220 219 217 223 209 227 219 193 233 237 238 258 261 297 7 19 331 9 5
217 222 227 231 226 237 234 227 226 229 233 235 226 217 223 221 221 225 228 221 232 224 232 219 229 260 237 280 305 311 323 336 333
225 233 220 226 225 231 230 226 228 226 231 234 234 228 229 223 223 227 230 226 232 237 241 246 254 256 256 274 300 310 314 325 324
222 219 224 224 227 223 223 227 226 227 229 232 233 235 231 230 226 226 252 236 237 237 234 246 255 254 263 282 288 305 320 319 323
215 225 222 223 226 222 224 226 229 227 228 231 233 232 238 230 233 230 231 238 241 238 234 246 255 265 275 290 283 299 308 310 315
217 219 223 227 224 221 224 228 230 229 228 231 234 232 234 233 234 236 235 234 252 260 252 255 260 268 276 284 289 293 303 310 313
221 221 222 225 225 226 225 229 230 227 230 229 231 233 233 234 238 245 241 243 244 248 256 263 265 275 273 278 282 296 299 305 308
220 221 222 224 228 226 223 228 229 229 230 230 234 233 235 236 238 237 243 248 246 255 258 256 267 266 280 277 281 286 297 299 303
224 223 222 223 227 223 228 229 228 230 227 232 232 237 236 234 238 240 241 247 249 255 260 261 264 270 267 276 281 283 288 287 301